Погода в Рязани

Хотите узнать прогноз погоды в Рязани? Тогда Вам сюда: Погода в Рязани

Поиск расширенной информации на нашем сайте:

Полезная информация:

Новости сайта



02.01.2020
Опубликован Долгосрочный прогноз погоды по городам России и ближнего зарубежья на январь 2020 года.
Карты: Прогноз на январь и февраль 2020 года, Сравнение прогнозируемой аномалии приземной температуры воздуха на январь 2020 года по разным моделям.




Погода в Рязани - сегодня

Время (UTC), дата Ветер
(°,м/с) 
Видим.   Явления Облачность Т
(°С)
Тd
(°С)
f(%) Тe
(°С)
Pmin
(гПа)
dP
(гПа)
Po
(мм)
O2
(г/м3)
Тmin Tmax R s Состояние
почвы
06 30.11.20 130 (ЮВ) 4{10}  4000 м  слаб. снег  10/0 средняя 
[As op]
-0.4 -1 96 -3  1032.7  0.1  759  307  -0.5         
09 30.11.20 150 (ЮВ) 4-11{11}  4000 м  слаб. дождь{снег}  10/10 300 м 
[Sc]
+0.1 -0.4 96 -2  1032.8  0.2  760  306           
12 30.11.20 140 (ЮВ) 3{11}  4000 м  слаб. снег{дождь}  10/0 средняя 
[As op]
-0.6 -1.3 95 -2  1032.6  -0.2  759  307           
15 30.11.20 150 (ЮВ) 3{11}  4000 м  слаб. снег  10/10 300 м 
[Ns]
-1 -1.9 94 -3  1032.9  0.2  760  307    +0.1  0.6     
18 30.11.20 160 (Ю) 4{10}  20000 м  {снег}  10/0 средняя 
[As op]
-1.1 -3.2 86 -4  1033  760  308           
21 30.11.20 160 (Ю) 4{10}  20000 м    10/0 средняя 
[Ac As]
-1.9 -3.9 86 -5  1033.2  0.1  760  309           
00 01.12.20 150 (ЮВ) 20000 м    8/0 верхняя 
[Ci fib]
-2.9 -5.2 84 -6  1033.2  760  310           
03 01.12.20 150 (ЮВ) 20000 м    9/0 верхняя 
[Cs]
-3.7 -5.9 85 -7  1033.7  0.4  760  311  -3.7    0.0  равномерный
сухой снег
100% 
06 01.12.20 150 (ЮВ) 20000 м    10/0 верхняя 
[Cc]
-4.3 -6.6 84 -7  1034.4  0.6  761  312  -4.3         
09 01.12.20 160 (Ю) 20000 м    10/0 верхняя 
[Cc]
-3 -7 74 -5  1034.5  0.2  761  311           
12 01.12.20 160 (Ю) 20000 м    10/0 средняя 
[Ac lent]
-2.5 -6.9 72 -5  1034.5  761  310           
15 01.12.20 160 (Ю) 20000 м    10/0 средняя, верхняя 
[Ac lent|Ci fib]
-2.6 -6.3 76 -4  1035.1  0.6  761  310    -2.5       
18 01.12.20 170 (Ю) 20000 м    10/0 средняя 
[Ac und]
-2.9 -6.4 77 -5  1036.1  762  311           
21 01.12.20 170 (Ю) 20000 м    10/0 средняя 
[Ac und]
-4.2 -6.9 81 -5  1037.5  1.2  763  313           
00 02.12.20 150 (ЮВ) 20000 м    8/0 средняя 
[Ac trans]
-5.7 -7.3 88 -7  1037.9  0.3  763  315           
03 02.12.20 140 (ЮВ) 20000 м    8/0 средняя 
[Ac trans]
-6.8 -8 91 -8  1038.2  0.2  763  316  -6.8      равномерный
сухой снег
100% 
06 02.12.20 140 (ЮВ) 10 км    8/0 средняя 
[Ac trans]
-7.9 -8.9 93 -9  1038.9  0.6  764  318  -7.9         
09 02.12.20 150 (ЮВ) 20000 м    10/0 верхняя 
[Ci fib]
-5.3 -8.4 79 -5  1038.7  0.1  764  315           
12 02.12.20 140 (ЮВ) 20000 м    8/0 верхняя 
[Ci fib]
-4.6 -8.1 76 -6  1038.3  -0.4  763  314           
15 02.12.20 130 (ЮВ) 20000 м    8/0 верхняя 
[Ci fib]
-6.2 -8.6 83 -6  1037.9  -0.5  763  315    -4.2       
18 02.12.20 140 (ЮВ) 20000 м    8/0 верхняя 
[Ci fib]
-7.3 -9.2 86 -9  1037.9  0.1  763  317           
21 02.12.20 150 (ЮВ) 20000 м    6/0 верхняя 
[Ci fib]
-8.7 -10.2 89 -10  1038.3  0.3  763  319           
00 03.12.20 150 (ЮВ) 20000 м    4/0 верхняя 
[Ci fib]
-9.2 -10.7 89 -12  1038  -0.4  763  319           
03 03.12.20 150 (ЮВ) 20000 м    6/0 верхняя 
[Ci fib]
-9.8 -11.4 88 -12  1037.5  -0.6  762  320  -9.9      равномерный
сухой снег
100% 
06 03.12.20 140 (ЮВ) 20000 м    8/0 верхняя 
[Ci fib]
-10.4 -12.2 87 -13  1037.8  0.3  763  321  -10.4         
Время (UTC), дата Ветер
(°,м/с) 
Видим.   Явления Облачность Т
(°С)
Тd
(°С)
f(%) Тe
(°С)
Pmin
(гПа)
dP
(гПа)
Po
(мм)
O2
(г/м3)
Тmin Tmax R s Состояние
почвы

Для получения пояснительной информации подведите курсор к названию столбца.

ПОГОДА в Рязани - архив

Всё, что Вы хотите узнать о погоде в Рязани - удобно и подробно!

Выберите нужную дату (начиная с 1 января 2019* года) и нажмите кнопку "Найти".
Будут отображены архивные сводки погоды по пункту Рязань, начиная с указанной даты.


Отображать данные в формате CSV (для использования в таблицах Excel)


Внимание! Наш архив погоды предназначен исключительно для личного некоммерческого использования в познавательных целях. Если Вам необходимы официальные справки о состоянии погоды (для производственных, юридических, коммерческих и т.п. целей), обращайтесь в органы Росгидромета.

*Примечание: данная дата относится к архиву по метеостанциям СССР (Россия, СНГ, Балтия).
Архив по метеостанциям Зарубежной Европы и Азии (кроме Китая) хранится 10 дней, по другим регионам земного шара (Китай, Африка, Америка, Австралия, Океания) - 1 день.

Рязань - район местоположения метеостанции


Название, широта, долгота, высота метеостанции:
Рязань 54.6°ш. 39.7°д. 158 м над ур. моря [Российская Федерация]

Дополнительная информация

В oтличие oт бoльшинства пoгoдных сайтoв мы публикуем пoдрoбную метеoинфoрмацию в детальнoм прoфессиoнальнoм фoрмате.

Характеристики температуры и влажнoсти вoздуха измеряются на высoте 2 м в тени вдали oт зданий и деревьев.
Скoрoсть ветра измеряется на высoте 10 м (на урoвне рoста челoвека скoрoсть ветра ниже в 1.5-2 раза). Если метеoстанция нахoдится в гoрoде или в лесу, тo скoрoсть ветра занижена на 2-4 м/с пo сравнению с oткрытым местoм. Скoрoсть ветра над акватoриями крупных рек и oзёр, а также на вершинах хoлмoв на 2-5 м/с выше, чем в oбычных услoвиях.
Атмoсфернoе давление в разных тoчках местнoсти мoжет значительнo oтличаться oт давления на метеoстанции, в зависимoсти oт услoвий рельефа (при пoдъёме на 10 м давление пoнижается примернo на 1 мм рт.ст.).